Flag for Russia Weather past 2 weeks in Penza, Russia

Now
14 °F

Sunny.


Feels Like: 8 °F
Forecast: 2 / 23 °F
Wind: 3 mph from North

Location: Saratov / Tsentralny

Current Time: Mar 3, 2015 at 10:58:53 AM

Latest Report: Mar 3, 2015 at 10:30 AM


Visibility: 10 mi

Pressure: 30.18 "Hg

Humidity: 100%

Dew point: 14 °F

Location of PenzaLocation

Historic Weather in Penza — Graph

°F

Penza temperature yesterday

Maximum temperature yesterday: 21 °F (at 12:00 AM)
Minimum temperature yesterday: 16 °F (at 11:00 PM)
Average temperature yesterday: 19 °F

Past Weeks' High & Low Weather Summary

 TemperatureHumidityPressure
High37 °F (Feb 22, 11:00 AM)100% (Feb 20, 6:00 AM)30.63 "Hg (Feb 20, 6:00 AM)
Low1 °F (Feb 20, 3:30 AM)52% (Feb 22, 11:00 AM)29.95 "Hg (Feb 19, 1:30 PM)
Average20 °F82%30.32 "Hg
* Reported Feb 16 9:00 AM — Mar 3 9:30 AM, Penza, Weather by CustomWeather, © 2015

Note: Actual official high and low records may vary slightly from our data, if they occured in-between our weather recording intervals... More about our weather records

Advertising

Penza weather history for previous 24 hours

 ConditionsComfort  
Time TempWeatherWind HumidityBarometerVisibility
9:30 AM
Tue, Mar 3
12 °FSunny.1 mph100%30.18 "Hg10 mi
9:00 AM12 °FScattered clouds.1 mph100%30.18 "HgN/A
8:30 AM12 °FScattered clouds.3 mph92%30.18 "HgN/A
8:00 AM12 °FPartly sunny.3 mph92%30.18 "HgN/A
7:30 AM12 °FIce fog.6 mph92%30.18 "Hg2 mi
7:00 AM12 °FPassing clouds.3 mph92%30.18 "HgN/A
6:30 AM12 °FLight snow. Low clouds.3 mph100%30.18 "HgN/A
6:00 AM12 °FLight snow. Low clouds.6 mph100%30.18 "HgN/A
5:30 AM14 °FLight snow. Low clouds.3 mph92%30.18 "HgN/A
5:00 AM14 °FLight snow. Low clouds.3 mph92%30.18 "HgN/A
4:30 AM14 °FLight snow. Low clouds.3 mph92%30.18 "HgN/A
4:00 AM14 °FLight snow. Low clouds.6 mph92%30.18 "HgN/A
3:30 AM14 °FPassing clouds.8 mph92%30.18 "HgN/A
3:00 AM14 °FPassing clouds.8 mph92%30.18 "HgN/A
2:00 AM16 °FClear.8 mph93%30.18 "Hg10 mi
1:30 AM16 °FClear.8 mph100%30.18 "Hg10 mi
1:00 AM16 °FClear.10 mph100%30.18 "Hg10 mi
12:30 AM16 °FClear.10 mph100%30.18 "Hg10 mi
12:00 AM16 °FClear.10 mph100%30.18 "Hg10 mi
11:30 PM
Mon, Mar 2
16 °FClear.10 mph93%30.18 "Hg10 mi
11:00 PM16 °FClear.10 mph93%30.18 "Hg10 mi
10:30 PM18 °FClear.10 mph86%30.18 "Hg10 mi
10:00 PM18 °FClear.10 mph86%30.18 "Hg10 mi
9:30 PM18 °FClear.10 mph93%30.18 "Hg10 mi
9:00 PM19 °FClear.13 mph86%30.18 "Hg10 mi
8:30 PM19 °FClear.10 mph86%30.18 "Hg10 mi
8:00 PM19 °FClear.13 mph86%30.18 "Hg10 mi
7:30 PM19 °FClear.10 mph86%30.18 "Hg10 mi
7:00 PM19 °FClear.10 mph86%30.18 "Hg10 mi
6:30 PM19 °FSunny.10 mph86%30.15 "Hg10 mi
6:00 PM19 °FSunny.10 mph86%30.15 "Hg10 mi
5:30 PM21 °FSunny.10 mph86%30.15 "Hg10 mi
5:00 PM21 °FSunny.10 mph86%30.15 "Hg10 mi
4:30 PM21 °FSunny.8 mph86%30.15 "Hg10 mi
4:00 PM21 °FSunny.8 mph86%30.15 "Hg10 mi
3:30 PM21 °FSunny.8 mph86%30.15 "Hg10 mi
3:00 PM21 °FSunny.10 mph86%30.15 "Hg10 mi
2:30 PM21 °FSunny.10 mph80%30.15 "Hg10 mi
2:00 PM21 °FSunny.10 mph80%30.15 "Hg10 mi
1:30 PM21 °FSunny.10 mph86%30.15 "Hg10 mi
1:00 PM21 °FSunny.10 mph86%30.15 "Hg10 mi
12:30 PM21 °FSunny.8 mph86%30.18 "Hg10 mi
12:00 PM21 °FSunny.8 mph86%30.18 "Hg10 mi
11:30 AM18 °FMore clouds than sun.10 mph93%30.18 "HgN/A
11:00 AM18 °FOvercast.6 mph93%30.18 "HgN/A
10:30 AM18 °FOvercast.6 mph93%30.15 "HgN/A
10:00 AM18 °FOvercast.8 mph93%30.15 "HgN/A
Weather by CustomWeather, © 2015

See weather overviewHow to use our weather pages